Regional Weather Roundup
Issued by NWS

Home | Current Version | Previous Version | Graphics & Text | Print | Product List | Glossary On
Versions: 1 2 3 4 5 6 7 8 9 10 11 12 13 14 15 16 17 18 19 20 21 22 23 24 25 26 27 28 29 30 31 32 33 34 35 36 37 38 39 40 41 42 43 44 45 46 47 48 49 50
000
ASUS45 KCYS 291210
RWRWY

WYOMING REGIONAL WEATHER ROUNDUP
NATIONAL WEATHER SERVICE CHEYENNE WY
600 AM MDT TUE JUL 29 2014

NOTE:  "FAIR" INDICATES FEW OR NO CLOUDS BELOW 12,000 FEET
WITH NO SIGNIFICANT WEATHER AND/OR OBSTRUCTIONS TO VISIBILITY.

WYZ001-291300-
YELLOWSTONE NATIONAL PARK

CITY           SKY/WX    TMP DP  RH WIND       PRES   REMARKS
LK YELLOWSTONE   N/A     52  49  89 CALM      30.48F
6HR MIN TEMP:  52; 6HR MAX TEMP:  58; 6HR PCP:  0.01;

W YELLOWSTONE  NOT AVBL

$$
WYZ002>013-054>058-071-098>099-291300-
NORTHERN WYOMING

CITY           SKY/WX    TMP DP  RH WIND       PRES   REMARKS
JACKSON        CLOUDY    64  46  52 N12       30.33S
CODY           NOT AVBL
GREYBULL       CLOUDY    78  45  30 N14       30.17S
6HR MIN TEMP:  76; 6HR MAX TEMP:  83;

WORLAND        LGT RAIN  70  51  51 SW3       30.20S
6HR MIN TEMP:  66; 6HR MAX TEMP:  78; 6HR PCP: TRACE;

SHERIDAN       CLOUDY    65  54  67 CALM      30.24S
6HR MIN TEMP:  64; 6HR MAX TEMP:  73; 6HR PCP: TRACE;

BUFFALO        CLOUDY    66  52  60 S7        30.32R
6HR MIN TEMP:  65; 6HR MAX TEMP:  71; 6HR PCP: TRACE;

GILLETTE       CLOUDY    62  58  86 SE6       30.26S
6HR MIN TEMP:  61; 6HR MAX TEMP:  70; 6HR PCP:  0.20;

HULETT         FAIR      55  52  88 MISG      30.29
NEWCASTLE      FAIR      59  57  94 SE8       30.29

$$
WYZ014>020-022>026-101>103-291300-
CENTRAL WYOMING

CITY           SKY/WX    TMP DP  RH WIND       PRES   REMARKS
BIG PINEY      CLOUDY    62  42  47 NE3       30.34F
6HR MIN TEMP:  62; 6HR MAX TEMP:  73; 6HR PCP: TRACE;

PINEDALE       LGT RAIN  57  48  72 N3        30.35S
DUBOIS         FAIR      63  37  39 SE8       30.37S
LANDER         CLOUDY    68  44  42 W5        30.27S
6HR MIN TEMP:  68; 6HR MAX TEMP:  76;

RIVERTON       CLOUDY    69  43  38 NE5       30.28R
6HR MIN TEMP:  67; 6HR MAX TEMP:  75;

CASPER         MOCLDY    61  51  70 E14       30.29R
6HR MIN TEMP:  61; 6HR MAX TEMP:  70;

DOUGLAS        PTCLDY    58  50  75 E18G25    30.30R
6HR MIN TEMP:  58; 6HR MAX TEMP:  68;


$$
WYZ021-027>030-104>119-291300-
SOUTHERN WYOMING

CITY           SKY/WX    TMP DP  RH WIND       PRES   REMARKS
EVANSTON       CLOUDY    56  54  93 SW6       30.36S
6HR MIN TEMP:  56; 6HR MAX TEMP:  59;

FORT BRIDGER   CLOUDY    63  52  68 W8        30.37S
ROCK SPRINGS   CLOUDY    64  46  52 W6        30.33R
6HR MIN TEMP:  64; 6HR MAX TEMP:  68;

DIXON          FAIR      61  49  65 CALM      30.37S
RAWLINS        CLOUDY    63  46  54 NE3       30.33S
6HR MIN TEMP:  62; 6HR MAX TEMP:  69;

SARATOGA       FAIR      59  46  63 CALM      30.36R
LARAMIE        MOCLDY    56  51  84 SW5       30.36S
6HR MIN TEMP:  56; 6HR MAX TEMP:  60;

CHEYENNE       PTCLDY    57  51  80 W8        30.30S
6HR MIN TEMP:  56; 6HR MAX TEMP:  62;

TORRINGTON     CLEAR     57  55  93 NE6       30.22R
6HR MIN TEMP:  56; 6HR MAX TEMP:  67;

PINE BLUFFS    FAIR      54  52  94 W5        30.25S

$$



USA.gov is the U.S. government's official web portal to all federal, state and local government web resources and services.